Simultaneous Nadir Overpasses (SNOs) Predictions

Prediction of SNOs between FY3D and NOAA-19 Satellite Orbit:

Table of predicted SNOs for the next 14.0 days since TLE Epoch: 6/29/2019
Index Date (FY3D) Time (FY3D) Lat,Lon (FY3D) SZA (FY3D ) Date (NOAA-19) Time (NOAA-19) Lat,Lon (NOAA-19) SZA (NOAA-19 ) Distance(km) Time Diff (sec)
1 07/09/2019 06:03:57 79.87, 52.71 59.72 07/09/2019 06:02:53 79.87, 48.43 60.27 83.68 64
2 07/09/2019 06:54:48 -80.05,-141.75 119.95 07/09/2019 06:53:50 -80.06,-141.89 119.89 3.12 58
3 07/09/2019 07:45:33 80.08, 25.30 60.11 07/09/2019 07:44:46 80.06, 25.35 60.12 1.81 47
4 07/09/2019 08:36:18 -80.08,-167.37 119.89 07/09/2019 08:35:51 -80.06,-167.45 119.88 2.23 27
5 07/09/2019 09:27:02 80.07, -0.02 60.11 07/09/2019 09:26:46 80.08, 0.11 60.11 2.79 16
6 07/09/2019 10:17:47 -80.07, 167.30 119.89 07/09/2019 10:17:51 -80.08, 167.30 119.89 0.89 4
7 07/09/2019 11:08:31 80.07, -25.35 60.11 07/09/2019 11:08:47 80.08, -25.45 60.12 2.18 16
8 07/09/2019 11:59:17 -80.09, 141.67 119.84 07/09/2019 11:59:52 -80.07, 141.74 119.88 2.60 35
9 07/09/2019 12:50:01 80.09, -50.98 60.17 07/09/2019 12:50:48 80.07, -51.01 60.13 2.12 47
10 07/09/2019 13:40:46 -80.09, 116.35 119.84 07/09/2019 13:41:52 -80.09, 116.50 119.88 2.82 66




NCC Satellite Simultaneous Nadir Overpasses (SNOs) Prediction Service
